| time (UTC) | temp F | wind direction | speed MPH | gust MPH | rain 1hr in | rain 24hr in | rain mn in | humidity % | barometer mb |
| 20260901152004 | 86 | 298 | 3.0 | 8.0 | 0.00 | 0.01 | 0.00 | 66 | 1015.6 |
| 20260901151504 | 85 | 318 | 3.0 | 11.0 | 0.00 | 0.01 | 0.00 | 66 | 1015.7 |
| 20260901150005 | 84 | 263 | 2.0 | 8.0 | 0.00 | 0.01 | 0.00 | 69 | 1015.4 |
| 20260901145503 | 84 | 271 | 3.0 | 10.0 | 0.00 | 0.01 | 0.00 | 69 | 1015.3 |
| 20260901145005 | 84 | 304 | 3.0 | 15.0 | 0.00 | 0.01 | 0.00 | 69 | 1015.3 |
| 20260901144503 | 83 | 278 | 3.0 | 15.0 | 0.00 | 0.01 | 0.00 | 70 | 1015.5 |
| 20260901144005 | 83 | 233 | 2.0 | 8.0 | 0.00 | 0.01 | 0.00 | 72 | 1015.5 |
| 20260901143504 | 82 | 253 | 2.0 | 8.0 | 0.00 | 0.01 | 0.00 | 74 | 1015.4 |
| 20260901143004 | 82 | 317 | 2.0 | 8.0 | 0.00 | 0.01 | 0.00 | 75 | 1015.4 |
| 20260901142504 | 81 | 303 | 3.0 | 8.0 | 0.00 | 0.01 | 0.00 | 75 | 1015.4 |
| 20260901142005 | 81 | 237 | 3.0 | 7.0 | 0.00 | 0.01 | 0.00 | 76 | 1015.5 |
| 20260901141504 | 80 | 244 | 2.0 | 7.0 | 0.00 | 0.01 | 0.00 | 77 | 1015.5 |
| 20260901141004 | 80 | 250 | 1.0 | 5.0 | 0.00 | 0.01 | 0.00 | 78 | 1015.5 |
| 20260901140504 | 80 | 251 | 1.0 | 5.0 | 0.00 | 0.01 | 0.00 | 79 | 1015.4 |
| 20260901140004 | 79 | 277 | 1.0 | 4.0 | 0.00 | 0.01 | 0.00 | 79 | 1015.2 |
| 20260901135505 | 79 | 251 | 1.0 | 3.0 | 0.00 | 0.01 | 0.00 | 80 | 1015.2 |
| 20260901134504 | 78 | 213 | 1.0 | 7.0 | 0.00 | 0.01 | 0.00 | 81 | 1015.1 |
| 20260901134005 | 78 | 221 | 1.0 | 7.0 | 0.00 | 0.01 | 0.00 | 82 | 1015.1 |
| 20260901133504 | 78 | 239 | 1.0 | 4.0 | 0.00 | 0.01 | 0.00 | 82 | 1015.2 |
| 20260901132504 | 77 | 240 | 1.0 | 6.0 | 0.00 | 0.01 | 0.00 | 82 | 1015.4 |
| 20260901132004 | 77 | 248 | 1.0 | 5.0 | 0.00 | 0.01 | 0.00 | 83 | 1015.4 |
| 20260901131504 | 77 | 249 | 1.0 | 4.0 | 0.00 | 0.01 | 0.00 | 83 | 1015.3 |
| 20260901131005 | 77 | 245 | 1.0 | 4.0 | 0.00 | 0.01 | 0.00 | 84 | 1015.5 |
| 20260901130005 | 76 | 244 | 0.0 | 3.0 | 0.00 | 0.01 | 0.00 | 84 | 1015.5 |
| 20260901125504 | 76 | 0 | 0.0 | 0.0 | 0.00 | 0.01 | 0.00 | 84 | 1015.5 |
| 20260901125004 | 76 | 0 | 0.0 | 0.0 | 0.00 | 0.01 | 0.00 | 84 | 1015.5 |
| 20260901124504 | 76 | 0 | 0.0 | 0.0 | 0.00 | 0.01 | 0.00 | 85 | 1015.6 |
| 20260901123004 | 76 | 0 | 0.0 | 0.0 | 0.00 | 0.01 | 0.00 | 85 | 1015.7 |
| 20260901122503 | 76 | 0 | 0.0 | 0.0 | 0.00 | 0.01 | 0.00 | 85 | 1015.7 |
| 20260901121504 | 75 | 0 | 0.0 | 0.0 | 0.00 | 0.01 | 0.00 | 85 | 1015.6 |
| 20260901121004 | 75 | 0 | 0.0 | 0.0 | 0.00 | 0.01 | 0.00 | 85 | 1015.5 |
| 20260901120503 | 75 | 0 | 0.0 | 0.0 | 0.00 | 0.01 | 0.00 | 85 | 1015.5 |
| 20260901120005 | 75 | 0 | 0.0 | 0.0 | 0.00 | 0.01 | 0.00 | 85 | 1015.6 |
| 20260901115004 | 75 | 0 | 0.0 | 0.0 | 0.00 | 0.01 | 0.00 | 85 | 1015.5 |
| 20260901114004 | 75 | 0 | 0.0 | 0.0 | 0.00 | 0.01 | 0.00 | 85 | 1015.5 |
| 20260901113503 | 75 | 0 | 0.0 | 0.0 | 0.00 | 0.01 | 0.00 | 85 | 1015.3 |
| 20260901113004 | 75 | 0 | 0.0 | 0.0 | 0.00 | 0.01 | 0.00 | 85 | 1015.4 |
| 20260901112504 | 75 | 0 | 0.0 | 0.0 | 0.00 | 0.01 | 0.00 | 85 | 1015.3 |
| 20260901112004 | 75 | 0 | 0.0 | 0.0 | 0.00 | 0.01 | 0.00 | 85 | 1015.2 |
| 20260901111504 | 75 | 0 | 0.0 | 0.0 | 0.00 | 0.01 | 0.00 | 85 | 1015.2 |
| 20260901111004 | 75 | 0 | 0.0 | 0.0 | 0.00 | 0.02 | 0.00 | 85 | 1015.1 |
| 20260901110004 | 75 | 0 | 0.0 | 0.0 | 0.00 | 0.02 | 0.00 | 85 | 1015.1 |
| 20260901105504 | 75 | 0 | 0.0 | 0.0 | 0.00 | 0.02 | 0.00 | 85 | 1015.1 |
| 20260901104504 | 75 | 0 | 0.0 | 0.0 | 0.00 | 0.02 | 0.00 | 85 | 1015.0 |
| 20260901104005 | 75 | 0 | 0.0 | 0.0 | 0.00 | 0.02 | 0.00 | 85 | 1015.0 |
| 20260901103503 | 75 | 0 | 0.0 | 0.0 | 0.00 | 0.02 | 0.00 | 85 | 1015.0 |
| 20260901103005 | 75 | 0 | 0.0 | 0.0 | 0.00 | 0.02 | 0.00 | 85 | 1015.0 |
| 20260901102504 | 75 | 0 | 0.0 | 0.0 | 0.00 | 0.02 | 0.00 | 85 | 1015.0 |
| 20260901102004 | 75 | 0 | 0.0 | 0.0 | 0.00 | 0.02 | 0.00 | 85 | 1015.0 |
| 20260901101504 | 75 | 0 | 0.0 | 0.0 | 0.00 | 0.02 | 0.00 | 85 | 1015.0 |
| 20260901101005 | 75 | 0 | 0.0 | 0.0 | 0.00 | 0.02 | 0.00 | 85 | 1015.0 |
| 20260901100503 | 75 | 0 | 0.0 | 0.0 | 0.00 | 0.02 | 0.00 | 85 | 1015.0 |
| 20260901095504 | 75 | 0 | 0.0 | 0.0 | 0.00 | 0.02 | 0.00 | 85 | 1015.0 |
| 20260901095004 | 75 | 0 | 0.0 | 0.0 | 0.00 | 0.02 | 0.00 | 85 | 1015.0 |
| 20260901094005 | 75 | 0 | 0.0 | 0.0 | 0.00 | 0.02 | 0.00 | 85 | 1014.9 |
| 20260901093503 | 75 | 0 | 0.0 | 0.0 | 0.00 | 0.02 | 0.00 | 85 | 1014.9 |
| 20260901092504 | 75 | 0 | 0.0 | 0.0 | 0.00 | 0.02 | 0.00 | 85 | 1015.0 |
| 20260901092004 | 75 | 0 | 0.0 | 0.0 | 0.00 | 0.02 | 0.00 | 85 | 1015.0 |
| 20260901091504 | 75 | 0 | 0.0 | 0.0 | 0.00 | 0.02 | 0.00 | 85 | 1015.0 |
| 20260901091004 | 75 | 0 | 0.0 | 0.0 | 0.00 | 0.02 | 0.00 | 85 | 1014.9 |
| 20260901090503 | 75 | 0 | 0.0 | 0.0 | 0.00 | 0.02 | 0.00 | 85 | 1015.0 |
| 20260901090005 | 75 | 0 | 0.0 | 0.0 | 0.00 | 0.02 | 0.00 | 85 | 1015.0 |
| 20260901085504 | 75 | 0 | 0.0 | 0.0 | 0.00 | 0.02 | 0.00 | 85 | 1014.9 |
| 20260901085004 | 75 | 0 | 0.0 | 0.0 | 0.00 | 0.02 | 0.00 | 85 | 1014.9 |
| 20260901084004 | 75 | 0 | 0.0 | 0.0 | 0.00 | 0.02 | 0.00 | 85 | 1015.0 |
| 20260901083504 | 74 | 0 | 0.0 | 0.0 | 0.00 | 0.02 | 0.00 | 85 | 1015.0 |
| 20260901083004 | 74 | 0 | 0.0 | 0.0 | 0.00 | 0.02 | 0.00 | 85 | 1014.9 |
| 20260901082504 | 74 | 0 | 0.0 | 0.0 | 0.00 | 0.02 | 0.00 | 85 | 1014.9 |
| 20260901082004 | 74 | 0 | 0.0 | 0.0 | 0.00 | 0.02 | 0.00 | 85 | 1015.0 |
| 20260901081504 | 74 | 0 | 0.0 | 0.0 | 0.00 | 0.02 | 0.00 | 85 | 1015.0 |
| 20260901081005 | 74 | 0 | 0.0 | 0.0 | 0.00 | 0.02 | 0.00 | 85 | 1015.1 |
| 20260901080504 | 74 | 0 | 0.0 | 0.0 | 0.00 | 0.02 | 0.00 | 85 | 1015.1 |
| 20260901080004 | 74 | 0 | 0.0 | 0.0 | 0.00 | 0.02 | 0.00 | 85 | 1015.1 |
| 20260901075504 | 74 | 0 | 0.0 | 0.0 | 0.00 | 0.02 | 0.00 | 85 | 1015.1 |
| 20260901075004 | 74 | 0 | 0.0 | 0.0 | 0.00 | 0.02 | 0.00 | 85 | 1015.1 |
| 20260901074504 | 74 | 0 | 0.0 | 0.0 | 0.00 | 0.02 | 0.00 | 85 | 1015.1 |
| 20260901074004 | 74 | 0 | 0.0 | 0.0 | 0.00 | 0.02 | 0.00 | 85 | 1015.1 |
| 20260901073503 | 74 | 0 | 0.0 | 0.0 | 0.00 | 0.02 | 0.00 | 85 | 1015.1 |
| 20260901073004 | 74 | 0 | 0.0 | 0.0 | 0.00 | 0.02 | 0.00 | 85 | 1015.1 |
| 20260901072504 | 74 | 0 | 0.0 | 0.0 | 0.00 | 0.02 | 0.00 | 85 | 1015.1 |
| 20260901072005 | 74 | 0 | 0.0 | 0.0 | 0.00 | 0.02 | 0.00 | 86 | 1015.1 |
| 20260901071503 | 74 | 0 | 0.0 | 0.0 | 0.00 | 0.02 | 0.00 | 86 | 1015.0 |
| 20260901070505 | 74 | 0 | 0.0 | 0.0 | 0.00 | 0.02 | 0.00 | 86 | 1015.0 |
| 20260901070004 | 74 | 0 | 0.0 | 0.0 | 0.00 | 0.02 | 0.00 | 86 | 1015.0 |
| 20260901065504 | 74 | 0 | 0.0 | 0.0 | 0.00 | 0.02 | 0.00 | 86 | 1015.1 |
| 20260901065004 | 74 | 0 | 0.0 | 0.0 | 0.00 | 0.02 | 0.00 | 86 | 1015.1 |
| 20260901064503 | 74 | 0 | 0.0 | 0.0 | 0.00 | 0.02 | 0.00 | 86 | 1015.1 |
| 20260901064004 | 74 | 0 | 0.0 | 0.0 | 0.00 | 0.02 | 0.00 | 86 | 1015.2 |
| 20260901063504 | 74 | 0 | 0.0 | 0.0 | 0.00 | 0.02 | 0.00 | 86 | 1015.2 |
| 20260901063004 | 74 | 0 | 0.0 | 0.0 | 0.00 | 0.02 | 0.00 | 87 | 1015.2 |
| 20260901062504 | 74 | 0 | 0.0 | 0.0 | 0.00 | 0.02 | 0.00 | 87 | 1015.2 |
| 20260901062004 | 74 | 0 | 0.0 | 0.0 | 0.00 | 0.02 | 0.00 | 87 | 1015.2 |
| 20260901061504 | 74 | 0 | 0.0 | 0.0 | 0.00 | 0.02 | 0.00 | 87 | 1015.2 |
| 20260901061004 | 74 | 0 | 0.0 | 0.0 | 0.00 | 0.02 | 0.00 | 87 | 1015.2 |
| 20260901060004 | 74 | 0 | 0.0 | 0.0 | 0.00 | 0.02 | 0.00 | 87 | 1015.3 |
| 20260901055504 | 74 | 0 | 0.0 | 0.0 | 0.00 | 0.02 | 0.00 | 87 | 1015.4 |
| 20260901055004 | 74 | 233 | 0.0 | 1.0 | 0.00 | 0.02 | 0.00 | 87 | 1015.5 |
| 20260901054503 | 74 | 233 | 0.0 | 1.0 | 0.00 | 0.02 | 0.00 | 87 | 1015.6 |
| 20260901053005 | 74 | 0 | 0.0 | 0.0 | 0.00 | 0.02 | 0.00 | 87 | 1015.6 |
| 20260901052503 | 74 | 0 | 0.0 | 0.0 | 0.00 | 0.02 | 0.00 | 87 | 1015.6 |
| 20260901051004 | 74 | 0 | 0.0 | 0.0 | 0.00 | 0.02 | 0.00 | 87 | 1015.7 |
| 20260901050004 | 74 | 0 | 0.0 | 0.0 | 0.00 | 0.02 | 0.00 | 87 | 1015.7 |
| 20260901045503 | 74 | 0 | 0.0 | 0.0 | 0.00 | 0.02 | 0.00 | 87 | 1015.8 |
| 20260901044506 | 74 | 0 | 0.0 | 0.0 | 0.00 | 0.02 | 0.00 | 87 | 1015.7 |
| 20260901044004 | 74 | 0 | 0.0 | 0.0 | 0.00 | 0.02 | 0.00 | 87 | 1015.6 |
| 20260901043504 | 74 | 0 | 0.0 | 0.0 | 0.00 | 0.02 | 0.00 | 87 | 1015.6 |
| 20260901043005 | 74 | 0 | 0.0 | 0.0 | 0.00 | 0.02 | 0.00 | 87 | 1015.6 |
| 20260901042504 | 74 | 0 | 0.0 | 0.0 | 0.00 | 0.02 | 0.00 | 87 | 1015.6 |
| 20260901042005 | 74 | 0 | 0.0 | 0.0 | 0.00 | 0.02 | 0.00 | 87 | 1015.7 |
| 20260901040504 | 74 | 0 | 0.0 | 0.0 | 0.00 | 0.02 | 0.00 | 86 | 1015.8 |
| 20260901035504 | 74 | 0 | 0.0 | 0.0 | 0.00 | 0.02 | 0.02 | 86 | 1015.8 |
| 20260901035004 | 74 | 0 | 0.0 | 0.0 | 0.00 | 0.02 | 0.02 | 85 | 1015.7 |
| 20260901034504 | 75 | 0 | 0.0 | 0.0 | 0.00 | 0.02 | 0.02 | 86 | 1015.7 |
| 20260901033503 | 75 | 0 | 0.0 | 0.0 | 0.00 | 0.02 | 0.02 | 86 | 1015.7 |
| 20260901033004 | 75 | 0 | 0.0 | 0.0 | 0.00 | 0.02 | 0.02 | 85 | 1015.7 |
| 20260901032504 | 75 | 0 | 0.0 | 0.0 | 0.00 | 0.02 | 0.02 | 85 | 1015.7 |
| 20260901032005 | 75 | 0 | 0.0 | 0.0 | 0.00 | 0.02 | 0.02 | 84 | 1015.8 |
| 20260901031504 | 75 | 0 | 0.0 | 0.0 | 0.00 | 0.02 | 0.02 | 84 | 1015.7 |
| 20260901031004 | 76 | 0 | 0.0 | 0.0 | 0.00 | 0.02 | 0.02 | 84 | 1015.7 |
| 20260901030504 | 76 | 0 | 0.0 | 0.0 | 0.00 | 0.02 | 0.02 | 84 | 1015.6 |
| 20260901030005 | 76 | 0 | 0.0 | 0.0 | 0.00 | 0.02 | 0.02 | 84 | 1015.5 |
| 20260901025503 | 76 | 0 | 0.0 | 0.0 | 0.00 | 0.02 | 0.02 | 83 | 1015.3 |
| 20260901025004 | 76 | 0 | 0.0 | 0.0 | 0.00 | 0.02 | 0.02 | 83 | 1015.4 |
| 20260901024504 | 76 | 0 | 0.0 | 0.0 | 0.00 | 0.02 | 0.02 | 83 | 1015.3 |
| 20260901024004 | 77 | 0 | 0.0 | 0.0 | 0.00 | 0.02 | 0.02 | 82 | 1015.5 |
| 20260901023504 | 77 | 0 | 0.0 | 0.0 | 0.00 | 0.02 | 0.02 | 82 | 1015.5 |
| 20260901023005 | 77 | 0 | 0.0 | 0.0 | 0.00 | 0.02 | 0.02 | 82 | 1015.6 |
| 20260901022503 | 77 | 0 | 0.0 | 0.0 | 0.00 | 0.02 | 0.02 | 82 | 1015.7 |
| 20260901022004 | 78 | 0 | 0.0 | 0.0 | 0.00 | 0.02 | 0.02 | 81 | 1015.9 |
| 20260901021504 | 78 | 0 | 0.0 | 0.0 | 0.00 | 0.02 | 0.02 | 81 | 1016.0 |
| 20260901021004 | 78 | 0 | 0.0 | 0.0 | 0.00 | 0.02 | 0.02 | 80 | 1016.0 |
| 20260901020503 | 78 | 0 | 0.0 | 0.0 | 0.00 | 0.02 | 0.02 | 80 | 1015.9 |
| 20260901020004 | 78 | 0 | 0.0 | 0.0 | 0.00 | 0.02 | 0.02 | 79 | 1015.8 |
| 20260901014504 | 78 | 0 | 0.0 | 0.0 | 0.00 | 0.02 | 0.02 | 79 | 1015.8 |
| 20260901014005 | 79 | 0 | 0.0 | 0.0 | 0.00 | 0.02 | 0.02 | 79 | 1015.7 |
| 20260901013504 | 79 | 0 | 0.0 | 0.0 | 0.00 | 0.02 | 0.02 | 77 | 1015.8 |
| 20260901013004 | 79 | 0 | 0.0 | 0.0 | 0.00 | 0.02 | 0.02 | 77 | 1015.7 |
| 20260901012504 | 79 | 0 | 0.0 | 0.0 | 0.00 | 0.02 | 0.02 | 78 | 1015.5 |
| 20260901012004 | 79 | 0 | 0.0 | 0.0 | 0.00 | 0.02 | 0.02 | 77 | 1015.4 |
| 20260901011504 | 79 | 0 | 0.0 | 0.0 | 0.00 | 0.02 | 0.02 | 76 | 1015.3 |
| 20260901011004 | 80 | 0 | 0.0 | 0.0 | 0.00 | 0.02 | 0.02 | 76 | 1015.2 |
| 20260901010504 | 80 | 0 | 0.0 | 0.0 | 0.00 | 0.02 | 0.02 | 76 | 1015.2 |
| 20260901010005 | 80 | 0 | 0.0 | 0.0 | 0.00 | 0.02 | 0.02 | 76 | 1015.2 |
| 20260901005503 | 80 | 0 | 0.0 | 0.0 | 0.00 | 0.02 | 0.02 | 75 | 1015.4 |
| 20260901005004 | 80 | 0 | 0.0 | 0.0 | 0.00 | 0.02 | 0.02 | 75 | 1015.5 |
| 20260901004503 | 80 | 0 | 0.0 | 0.0 | 0.00 | 0.02 | 0.02 | 74 | 1015.6 |
| 20260901004005 | 81 | 0 | 0.0 | 0.0 | 0.00 | 0.02 | 0.02 | 73 | 1015.6 |
| 20260901003503 | 81 | 0 | 0.0 | 0.0 | 0.00 | 0.02 | 0.02 | 71 | 1015.8 |
| 20260901002004 | 81 | 0 | 0.0 | 0.0 | 0.00 | 0.02 | 0.02 | 68 | 1015.9 |
| 20260901001504 | 81 | 0 | 0.0 | 0.0 | 0.00 | 0.02 | 0.02 | 67 | 1016.0 |
| 20260901001004 | 82 | 0 | 0.0 | 0.0 | 0.00 | 0.02 | 0.02 | 67 | 1016.0 |
| 20260901000504 | 82 | 0 | 0.0 | 0.0 | 0.00 | 0.02 | 0.02 | 66 | 1015.9 |
| 20260901000004 | 82 | 0 | 0.0 | 0.0 | 0.00 | 0.02 | 0.02 | 65 | 1015.9 |
| 20260831235504 | 82 | 0 | 0.0 | 0.0 | 0.00 | 0.02 | 0.02 | 65 | 1015.9 |
| 20260831235004 | 82 | 0 | 0.0 | 0.0 | 0.00 | 0.02 | 0.02 | 64 | 1016.0 |
| 20260831234005 | 83 | 0 | 0.0 | 0.0 | 0.00 | 0.02 | 0.02 | 63 | 1015.9 |
| 20260831233503 | 83 | 0 | 0.0 | 0.0 | 0.00 | 0.02 | 0.02 | 62 | 1015.9 |
| 20260831233005 | 83 | 0 | 0.0 | 0.0 | 0.00 | 0.02 | 0.02 | 62 | 1016.0 |
| 20260831232504 | 83 | 0 | 0.0 | 0.0 | 0.00 | 0.02 | 0.02 | 62 | 1016.0 |
| 20260831232004 | 83 | 0 | 0.0 | 0.0 | 0.00 | 0.02 | 0.02 | 61 | 1016.0 |
| 20260831231504 | 84 | 0 | 0.0 | 0.0 | 0.00 | 0.02 | 0.02 | 61 | 1016.1 |
| 20260831231004 | 84 | 0 | 0.0 | 0.0 | 0.00 | 0.02 | 0.02 | 60 | 1016.2 |
| 20260831230504 | 84 | 293 | 0.0 | 1.0 | 0.00 | 0.02 | 0.02 | 60 | 1016.2 |
| 20260831230004 | 84 | 293 | 0.0 | 1.0 | 0.00 | 0.02 | 0.02 | 59 | 1016.2 |
| 20260831225004 | 84 | 293 | 0.0 | 2.0 | 0.00 | 0.02 | 0.02 | 58 | 1016.2 |
| 20260831224004 | 84 | 0 | 0.0 | 0.0 | 0.00 | 0.02 | 0.02 | 57 | 1016.1 |
| 20260831223504 | 84 | 0 | 0.0 | 0.0 | 0.00 | 0.02 | 0.02 | 57 | 1016.1 |
| 20260831223004 | 85 | 0 | 0.0 | 0.0 | 0.00 | 0.02 | 0.02 | 56 | 1016.0 |
| 20260831222004 | 85 | 296 | 0.0 | 3.0 | 0.00 | 0.02 | 0.02 | 57 | 1016.1 |
| 20260831221504 | 85 | 296 | 0.0 | 3.0 | 0.00 | 0.02 | 0.02 | 55 | 1016.1 |
| 20260831221004 | 85 | 297 | 0.0 | 2.0 | 0.00 | 0.02 | 0.02 | 56 | 1016.1 |
| 20260831220004 | 85 | 298 | 0.0 | 1.0 | 0.00 | 0.02 | 0.02 | 56 | 1016.1 |
| 20260831215504 | 85 | 298 | 0.0 | 1.0 | 0.00 | 0.02 | 0.02 | 57 | 1016.1 |
| 20260831215005 | 85 | 0 | 0.0 | 0.0 | 0.00 | 0.02 | 0.02 | 57 | 1016.0 |
| 20260831214504 | 85 | 299 | 0.0 | 2.0 | 0.00 | 0.02 | 0.02 | 56 | 1016.1 |
| 20260831214012 | 86 | 305 | 0.0 | 2.0 | 0.00 | 0.02 | 0.02 | 57 | 1016.2 |
| 20260831213505 | 86 | 313 | 0.0 | 2.0 | 0.00 | 0.02 | 0.02 | 57 | 1016.2 |
| 20260831213006 | 86 | 309 | 1.0 | 5.0 | 0.00 | 0.02 | 0.02 | 60 | 1016.3 |
| 20260831212004 | 86 | 287 | 1.0 | 6.0 | 0.00 | 0.02 | 0.02 | 60 | 1016.4 |
| 20260831211005 | 86 | 295 | 2.0 | 10.0 | 0.00 | 0.02 | 0.02 | 60 | 1016.3 |
| 20260831210504 | 86 | 289 | 2.0 | 10.0 | 0.00 | 0.02 | 0.02 | 59 | 1016.5 |
| 20260831210004 | 86 | 290 | 2.0 | 7.0 | 0.00 | 0.02 | 0.02 | 60 | 1016.6 |
| 20260831205504 | 85 | 266 | 1.0 | 7.0 | 0.00 | 0.02 | 0.02 | 62 | 1016.4 |
| 20260831204503 | 85 | 321 | 1.0 | 5.0 | 0.00 | 0.02 | 0.02 | 62 | 1016.2 |
| 20260831203503 | 85 | 0 | 0.0 | 0.0 | 0.00 | 0.02 | 0.02 | 64 | 1016.0 |
| 20260831203004 | 85 | 0 | 0.0 | 0.0 | 0.00 | 0.02 | 0.02 | 67 | 1016.0 |
| 20260831202504 | 85 | 0 | 0.0 | 0.0 | 0.00 | 0.02 | 0.02 | 66 | 1016.2 |
| 20260831202004 | 85 | 0 | 0.0 | 0.0 | 0.00 | 0.02 | 0.02 | 66 | 1016.3 |
| 20260831201504 | 86 | 0 | 0.0 | 0.0 | 0.00 | 0.02 | 0.02 | 66 | 1016.3 |
| 20260831201004 | 86 | 0 | 0.0 | 0.0 | 0.00 | 0.02 | 0.02 | 62 | 1016.1 |
| 20260831200504 | 86 | 0 | 0.0 | 0.0 | 0.00 | 0.02 | 0.02 | 62 | 1016.0 |
| 20260831200004 | 86 | 0 | 0.0 | 0.0 | 0.00 | 0.02 | 0.02 | 61 | 1015.9 |
| 20260831195504 | 86 | 231 | 1.0 | 4.0 | 0.00 | 0.02 | 0.02 | 58 | 1016.0 |
| 20260831195004 | 86 | 255 | 1.0 | 4.0 | 0.00 | 0.02 | 0.02 | 58 | 1016.1 |
| 20260831194004 | 87 | 298 | 1.0 | 5.0 | 0.00 | 0.02 | 0.02 | 56 | 1016.4 |
| 20260831193504 | 87 | 292 | 1.0 | 5.0 | 0.00 | 0.02 | 0.02 | 57 | 1016.6 |
| 20260831193004 | 88 | 308 | 2.0 | 7.0 | 0.00 | 0.02 | 0.02 | 57 | 1016.7 |
| 20260831192004 | 88 | 318 | 2.0 | 8.0 | 0.00 | 0.02 | 0.02 | 55 | 1016.7 |
| 20260831191504 | 88 | 314 | 2.0 | 9.0 | 0.00 | 0.02 | 0.02 | 56 | 1016.8 |
| 20260831191004 | 88 | 314 | 3.0 | 9.0 | 0.00 | 0.02 | 0.02 | 56 | 1016.8 |
| 20260831190504 | 88 | 301 | 3.0 | 9.0 | 0.00 | 0.02 | 0.02 | 56 | 1016.8 |
| 20260831190004 | 88 | 300 | 2.0 | 9.0 | 0.00 | 0.02 | 0.02 | 56 | 1016.9 |
| 20260831185503 | 88 | 312 | 3.0 | 9.0 | 0.00 | 0.02 | 0.02 | 59 | 1017.0 |
| 20260831184503 | 87 | 274 | 2.0 | 5.0 | 0.00 | 0.02 | 0.02 | 62 | 1017.1 |
| 20260831183504 | 87 | 273 | 1.0 | 8.0 | 0.00 | 0.02 | 0.02 | 60 | 1017.3 |
| 20260831183004 | 87 | 260 | 1.0 | 5.0 | 0.00 | 0.02 | 0.02 | 58 | 1017.3 |
| 20260831182504 | 87 | 307 | 1.0 | 10.0 | 0.00 | 0.02 | 0.02 | 60 | 1017.4 |
| 20260831181504 | 87 | 255 | 2.0 | 5.0 | 0.00 | 0.02 | 0.02 | 59 | 1017.5 |
| 20260831180503 | 87 | 278 | 2.0 | 4.0 | 0.00 | 0.02 | 0.02 | 59 | 1017.3 |
| 20260831175504 | 87 | 276 | 2.0 | 5.0 | 0.00 | 0.02 | 0.02 | 58 | 1017.3 |
| 20260831175004 | 87 | 248 | 2.0 | 5.0 | 0.00 | 0.02 | 0.02 | 58 | 1017.3 |
| 20260831174005 | 87 | 264 | 2.0 | 9.0 | 0.00 | 0.02 | 0.02 | 59 | 1017.4 |
| 20260831173503 | 87 | 249 | 2.0 | 9.0 | 0.00 | 0.02 | 0.02 | 61 | 1017.5 |
| 20260831173006 | 86 | 256 | 1.0 | 5.0 | 0.00 | 0.02 | 0.02 | 63 | 1017.5 |
| 20260831172503 | 86 | 238 | 2.0 | 5.0 | 0.00 | 0.02 | 0.02 | 62 | 1017.5 |
| 20260831172004 | 85 | 238 | 2.0 | 7.0 | 0.00 | 0.02 | 0.02 | 63 | 1017.5 |
| 20260831165503 | 85 | 230 | 1.0 | 4.0 | 0.01 | 0.02 | 0.02 | 63 | 1017.5 |
| 20260831165005 | 85 | 243 | 2.0 | 5.0 | 0.01 | 0.02 | 0.02 | 63 | 1017.7 |
| 20260831164503 | 85 | 287 | 1.0 | 5.0 | 0.01 | 0.02 | 0.02 | 62 | 1017.7 |
| 20260831164004 | 84 | 281 | 2.0 | 5.0 | 0.01 | 0.02 | 0.02 | 63 | 1017.7 |
| 20260831163504 | 84 | 244 | 2.0 | 8.0 | 0.01 | 0.02 | 0.02 | 64 | 1017.6 |
| 20260831163004 | 84 | 229 | 2.0 | 8.0 | 0.01 | 0.02 | 0.02 | 64 | 1017.7 |
| 20260831162504 | 83 | 226 | 2.0 | 7.0 | 0.01 | 0.02 | 0.02 | 65 | 1017.7 |
| 20260831162004 | 83 | 235 | 1.0 | 5.0 | 0.01 | 0.02 | 0.02 | 64 | 1017.7 |
| 20260831160504 | 82 | 242 | 2.0 | 7.0 | 0.00 | 0.01 | 0.01 | 66 | 1017.7 |
| 20260831160004 | 81 | 242 | 2.0 | 7.0 | 0.00 | 0.01 | 0.01 | 67 | 1017.6 |
| 20260831155504 | 81 | 235 | 2.0 | 7.0 | 0.00 | 0.01 | 0.01 | 68 | 1017.7 |
| 20260831155004 | 81 | 234 | 2.0 | 6.0 | 0.00 | 0.01 | 0.01 | 70 | 1017.7 |
| 20260831154504 | 80 | 242 | 1.0 | 4.0 | 0.00 | 0.01 | 0.01 | 71 | 1017.7 |
| 20260831154004 | 80 | 241 | 1.0 | 4.0 | 0.00 | 0.01 | 0.01 | 73 | 1017.7 |
| 20260831153503 | 79 | 235 | 2.0 | 7.0 | 0.00 | 0.01 | 0.01 | 75 | 1017.7 |
| 20260831152503 | 78 | 248 | 1.0 | 7.0 | 0.00 | 0.01 | 0.01 | 81 | 1017.9 |